Location: Kassel
(51.3066°N, 9.4716°E)
Time: 01:40:57
(UTC+01:00)

ISS - Visible Passes

Search period start: 29 November 2021 00:00
Search period end: 09 December 2021 00:00
Orbit: 417 x 423 km, 51.6° (Epoch: 28 November)

Date Brightness Start Highest point End Pass type
(mag) Time Alt. Az. Time Alt. Az. Time Alt. Az.
29 Nov -3.7 17:05:07 10° WSW 17:08:31 84° SSE 17:11:55 10° E visible
29 Nov -3.3 18:41:59 10° W 18:44:54 63° W 18:44:54 63° W visible
30 Nov -3.8 17:54:47 10° W 17:58:12 84° N 17:59:38 32° E visible
30 Nov -0.8 19:31:40 10° W 19:32:37 17° W 19:32:37 17° W visible
01 Dec -3.7 17:07:34 10° W 17:10:59 82° N 17:14:23 10° E visible
01 Dec -3.1 18:44:26 10° W 18:47:22 56° WSW 18:47:22 56° WSW visible
02 Dec -3.7 17:57:13 10° W 18:00:37 79° SSW 18:02:11 30° ESE visible
02 Dec -0.7 19:34:16 10° W 19:35:10 16° W 19:35:10 16° W visible
03 Dec -3.7 17:09:58 10° W 17:13:24 90° SW 17:16:48 10° E visible
03 Dec -2.4 18:46:54 10° W 18:50:03 36° SSW 18:50:03 36° SSW visible
04 Dec -2.9 17:59:36 10° W 18:02:53 48° SSW 18:05:04 19° SE visible
04 Dec -0.4 19:37:31 10° WSW 19:38:05 12° WSW 19:38:05 12° WSW visible
05 Dec -3.3 17:12:19 10° W 17:15:41 63° SSW 17:19:03 10° ESE visible
05 Dec -1.3 18:49:38 10° W 18:52:04 18° SW 18:53:16 16° S visible
06 Dec -1.6 18:02:05 10° W 18:04:58 26° SSW 18:07:50 10° SSE visible
07 Dec -2.1 17:14:39 10° W 17:17:48 35° SSW 17:20:56 10° SE visible
08 Dec -0.5 18:05:15 10° WSW 18:06:48 13° SW 18:08:21 10° SSW visible
